{"data":{"norad_id":59900,"epoch":"2026-09-21T05:53:42.680832Z","epoch_age_seconds":110064,"freshness":"FRESH","line1":"1 59900U 24100R   26264.24563288 -.00000176  00000+0  31382-5 0  9994","line2":"2 59900  43.0020 101.0831 0001210 274.7344  85.3370 15.27575096130954","mean_motion":15.27575096,"eccentricity":0.000121,"inclination_deg":43.002,"raan_deg":101.0831,"arg_perigee_deg":274.7344,"mean_anomaly_deg":85.337,"bstar":3.1382e-6,"rev_number":13095,"period_min":94.267051339779,"perigee_km":482.23357512471,"apogee_km":483.89398571357,"semimajor_km":6861.2007804191,"source":"CELESTRAK","updated_at":"2026-09-22T09:00:49.108681Z"}}